Change the Weather History Date:

Friday, March 22, 2013

  Actual Average Record
Temperature  
Mean Temperature 31 °F -  
Max Temperature 41 °F 42 °F 61 °F (1998)
Min Temperature 23 °F 31 °F 23 °F (2013)
Degree Days  
Heating Degree Days 34    
Moisture  
Dew Point 26 °F    
Average Humidity 78    
Maximum Humidity 92    
Minimum Humidity 49    
Precipitation  
Precipitation 0.01 in - - ()
Sea Level Pressure  
Sea Level Pressure 30.32 in    
Wind  
Wind Speed 2 mph (NNE)    
Max Wind Speed 8 mph    
Max Gust Speed -    
Visibility 10 miles    
Events      
Averages and records for this station are not official NWS values.
T = Trace of Precipitation, MM = Missing Value Source: NWS Daily Summary

Daily Weather History Graph

Daily Weather History Graph

Search for Another Location

Airport or City:

Trip Planner

Search our weather history database for the weather conditions in past years. The results will help you decide how hot, cold, wet, or windy it might be!

Date:

Astronomy

Mar. 22, 2013 Rise Set
Actual Time 6:48 AM AKDT 7:10 PM AKDT
Civil Twilight 6:11 AM AKDT 7:47 PM AKDT
Nautical Twilight 5:27 AM AKDT 8:32 PM AKDT
Astronomical Twilight 4:40 AM AKDT 9:19 PM AKDT
Moon 2:04 PM AKDT (3/22) 4:36 AM AKDT (3/22)
Length of Visible Light 13h 36m
Length of Day
12h 22m
Waxing Gibbous, 78% of the Moon is Illuminated
Mar 22
Waxing Gibbous
Mar 27
Full
Apr 2
Last Quarter
Apr 10
New
Apr 18
First Quarter

Hourly Weather History & Observations

Time (AKDT) Temp. Windchill Dew Point Humidity Pressure Visibility Wind Dir Wind Speed Gust Speed Precip Events Conditions
1:53 AM 28.9 °F - 27.0 °F 92% 30.30 in 10.0 mi Calm Calm - N/A   Overcast
2:53 AM 28.0 °F - 25.0 °F 88% 30.31 in 10.0 mi Calm Calm - N/A   Clear
3:53 AM 27.0 °F - 24.1 °F 89% 30.33 in 10.0 mi Calm Calm - N/A   Clear
5:53 AM 25.0 °F - 21.9 °F 88% 30.35 in 10.0 mi Calm Calm - N/A   Partly Cloudy
6:53 AM 23.0 °F - 21.0 °F 92% 30.36 in 10.0 mi Calm Calm - N/A   Clear
7:53 AM 25.0 °F 19.3 °F 21.0 °F 85% 30.35 in 10.0 mi NNE 4.6 mph - N/A   Clear
8:53 AM 28.0 °F - 26.1 °F 92% 30.35 in 10.0 mi Calm Calm - N/A   Clear
9:53 AM 30.9 °F - 26.1 °F 82% 30.34 in 10.0 mi Calm Calm - 0.01 in   Clear
10:53 AM 33.1 °F - 25.0 °F 72% 30.37 in 10.0 mi Calm Calm - N/A   Clear
11:53 AM 35.1 °F 32.2 °F 26.1 °F 70% 30.37 in 10.0 mi WNW 3.5 mph - N/A   Scattered Clouds
12:53 PM 37.9 °F - 26.1 °F 62% 30.36 in 10.0 mi Calm Calm - N/A   Scattered Clouds
1:53 PM 37.9 °F 34.4 °F 26.1 °F 62% 30.34 in 10.0 mi North 4.6 mph - N/A   Partly Cloudy
2:53 PM 39.9 °F 37.8 °F 24.1 °F 53% 30.34 in 10.0 mi North 3.5 mph - N/A   Scattered Clouds
3:53 PM 39.9 °F 35.8 °F 21.9 °F 49% 30.32 in 10.0 mi North 5.8 mph - N/A   Partly Cloudy
4:53 PM 37.9 °F 32.7 °F 26.1 °F 62% 30.31 in 10.0 mi NNE 6.9 mph - N/A   Partly Cloudy
5:53 PM 37.0 °F 31.0 °F 28.9 °F 73% 30.30 in 10.0 mi NNE 8.1 mph - N/A   Mostly Cloudy
6:53 PM 36.0 °F 32.1 °F 28.9 °F 76% 30.30 in 10.0 mi NE 4.6 mph - N/A   Mostly Cloudy
7:53 PM 33.1 °F - 28.0 °F 82% 30.30 in 10.0 mi Calm Calm - N/A   Mostly Cloudy
8:53 PM 32.0 °F 28.7 °F 28.0 °F 85% 30.29 in 10.0 mi ENE 3.5 mph - N/A   Scattered Clouds
9:53 PM 32.0 °F 28.7 °F 27.0 °F 82% 30.29 in 10.0 mi ENE 3.5 mph - N/A   Clear
10:53 PM 30.9 °F 27.5 °F 27.0 °F 85% 30.28 in 10.0 mi NE 3.5 mph - N/A   Clear
11:53 PM 30.9 °F - 27.0 °F 85% 30.27 in 10.0 mi Calm Calm - N/A   Clear